Retour au catalogue

COSMOS 1251

ActifMilitaireLEO
NORAD 12321·PAYLOAD·🇷🇺 Russia

Lancé Mar 6, 1981 depuis Plesetsk Cosmodrome

Loading…

Prochains Passages (prochaines 24 heures)

TLE

FraisSource: Space-Track

Époque: Sep 14, 2026, 14:14 UTC

1 12321U 81022B   26257.59323247  .00000001  00000-0  10075-3 0  9996
2 12321  74.0298 304.5361 0044386  13.8589  59.1726 12.56491465 88157

Suivez COSMOS 1251 en temps réel avec AllMySat

Download on the App Store